DW8293 Weather Reports


time (UTC)temp
F
wind
direction
speed
knots
gust
knots
rain 1hr
in
rain 24hr
in
rain mn
in
humidity
%
barometer
mb
20260502231803 49 206 0.9 3.5 0.02 0.07 0.02 91 1004.9
20260502230903 49 274 1.7 3.5 0.01 0.06 0.01 90 1004.8
20260502230005 50 292 1.7 1.7 0.01 0.06 0.01 88 1004.9
20260502225403 50 304 1.7 1.7 0.01 0.06 0.01 85 1004.9
20260502224503 51 315 1.7 1.7 0.00 0.05 0.00 85 1004.9
20260502223603 51 315 0.9 1.7 0.00 0.05 0.00 85 1004.7
20260502222703 51 315 0.0 1.7 0.00 0.05 0.00 86 1004.6
20260502221803 50 315 0.0 1.7 0.00 0.05 0.00 86 1004.5
20260502220925 50 315 0.0 1.7 0.00 0.05 0.00 87 1004.7
20260502220003 50 315 0.0 1.7 0.00 0.05 0.00 85 1004.7
20260502215405 51 315 0.9 1.7 0.00 0.05 0.05 86 1004.7
20260502214504 51 315 1.7 1.7 0.00 0.05 0.05 83 1004.7
20260502213603 51 315 0.0 1.7 0.01 0.05 0.05 80 1004.5
20260502212703 51 315 1.7 3.5 0.01 0.05 0.05 80 1004.3
20260502211803 51 315 1.7 3.5 0.01 0.05 0.05 80 1004.5
20260502210924 52 320 1.7 6.1 0.01 0.05 0.05 80 1004.4
20260502210004 52 313 3.5 6.1 0.01 0.05 0.05 79 1004.4
20260502205403 52 310 4.3 7.8 0.01 0.05 0.05 77 1004.7
20260502204503 53 319 4.3 7.8 0.01 0.05 0.05 76 1004.9
20260502203603 53 324 2.6 7.8 0.00 0.04 0.04 74 1004.6
20260502202705 54 322 2.6 7.0 0.00 0.04 0.04 73 1004.4
20260502201803 55 335 2.6 7.0 0.00 0.04 0.04 71 1004.2
20260502200903 55 333 3.5 9.6 0.00 0.04 0.04 69 1004.2
20260502200005 56 323 2.6 7.0 0.01 0.04 0.04 67 1004.3
20260502195403 56 325 3.5 7.8 0.01 0.04 0.04 64 1004.3
20260502194505 56 327 4.3 7.0 0.02 0.04 0.04 69 1004.2
20260502193603 56 325 2.6 9.6 0.04 0.04 0.04 72 1004.3
20260502192724 56 320 5.2 9.6 0.04 0.04 0.04 70 1004.6
20260502191805 55 304 3.5 7.8 0.04 0.04 0.04 74 1004.3
20260502190905 56 277 3.5 7.0 0.04 0.04 0.04 73 1004.3
20260502190004 56 274 3.5 7.0 0.02 0.02 0.02 69 1004.3
20260502185424 57 273 3.5 7.0 0.02 0.02 0.02 67 1004.6
20260502184503 57 289 4.3 9.6 0.01 0.01 0.01 68 1004.7
20260502183624 58 284 3.5 6.1 0.00 0.00 0.00 63 1004.6
20260502182703 60 291 2.6 7.8 0.00 0.00 0.00 56 1004.2
20260502181803 61 303 3.5 7.8 0.00 0.00 0.00 50 1003.8
20260502180905 62 308 3.5 7.8 0.00 0.00 0.00 49 1003.5
20260502163603 68 257 3.5 13.0 0.00 0.00 0.00 41 1002.8
20260502162726 69 241 5.2 11.3 0.00 0.00 0.00 41 1002.9
20260502161824 69 254 7.0 13.9 0.00 0.00 0.00 42 1003.1
20260502160905 69 242 8.7 15.6 0.00 0.00 0.00 41 1003.2
20260502151824 70 209 7.8 15.6 0.00 0.00 0.00 36 1003.5
20260502150903 70 237 9.6 18.2 0.00 0.00 0.00 36 1003.5
20260502123603 70 266 7.0 17.4 0.00 0.00 0.00 30 1004.7
20260502122703 70 256 7.0 21.7 0.00 0.00 0.00 31 1004.9
20260502121803 70 228 7.0 17.4 0.00 0.00 0.00 32 1004.9
20260502120903 70 239 7.8 15.6 0.00 0.00 0.00 31 1004.9
20260502115403 70 242 7.0 17.4 0.00 0.00 0.00 32 1005.2
20260502114503 69 249 7.0 17.4 0.00 0.00 0.00 31 1005.5
20260502113603 70 241 7.0 13.9 0.00 0.00 0.00 33 1005.5
20260502112703 69 252 6.1 18.2 0.00 0.00 0.00 32 1005.7
20260502111803 68 263 12.2 18.2 0.00 0.00 0.00 33 1005.8
20260502110903 68 258 9.6 19.1 0.00 0.00 0.00 33 1005.9
20260502110003 68 254 7.0 19.1 0.00 0.00 0.00 33 1005.8
20260502105403 68 262 9.6 18.2 0.00 0.00 0.00 33 1005.8
20260502104503 67 241 11.3 20.9 0.00 0.00 0.00 33 1006.0
20260502103604 68 237 7.0 17.4 0.00 0.00 0.00 34 1006.1
20260502102703 67 241 8.7 17.4 0.00 0.00 0.00 33 1006.2
20260502101824 67 233 7.0 13.0 0.00 0.00 0.00 33 1006.2
20260502100903 67 242 7.0 18.2 0.00 0.00 0.00 33 1006.4
20260502090903 65 248 5.2 20.0 0.00 0.00 0.00 31 1007.2
20260502070903 58 216 3.5 12.2 0.00 0.00 0.00 44 1008.1
20260502070003 58 230 7.0 12.2 0.00 0.00 0.00 44 1008.4
20260502065403 57 230 4.3 12.2 0.00 0.00 0.00 45 1008.3
20260502064505 57 248 7.0 11.3 0.00 0.00 0.00 46 1008.4
20260502063603 57 226 4.3 12.2 0.00 0.00 0.00 46 1008.3
20260502062704 56 221 7.0 11.3 0.00 0.00 0.00 47 1008.4
20260502060905 56 226 4.3 7.8 0.00 0.00 0.00 49 1008.5
20260502060024 55 230 5.2 9.6 0.00 0.00 0.00 49 1008.4
20260502055403 55 230 3.5 9.6 0.00 0.00 0.00 50 1008.5
20260502054503 55 240 3.5 7.0 0.00 0.00 0.00 51 1008.7
20260502053624 54 228 3.5 6.1 0.00 0.00 0.00 52 1008.7
20260502052703 54 237 2.6 3.5 0.00 0.00 0.00 54 1008.6
20260502051804 53 239 2.6 5.2 0.00 0.00 0.00 55 1008.7
20260502050903 53 251 2.6 5.2 0.00 0.00 0.00 55 1008.5
20260502050026 53 238 1.7 7.0 0.00 0.00 0.00 55 1008.8
20260502045425 52 245 1.7 3.5 0.00 0.00 0.00 55 1009.0
20260502044505 52 232 1.7 3.5 0.00 0.00 0.00 56 1008.6
20260502043606 52 240 1.7 3.5 0.00 0.00 0.00 56 1008.8
20260502042726 52 232 0.9 3.5 0.00 0.00 0.00 57 1008.9
20260502041804 51 241 1.7 7.0 0.00 0.00 0.00 58 1008.7
20260502040903 51 247 3.5 5.2 0.00 0.00 0.00 58 1008.7
20260502040003 51 232 2.6 6.1 0.00 0.00 0.00 58 1008.9
20260502035403 51 240 3.5 7.0 0.00 0.00 0.00 59 1009.1
20260502034503 50 252 4.3 9.6 0.00 0.00 0.00 59 1009.0
20260502033605 51 249 3.5 7.0 0.00 0.00 0.00 59 1009.2
20260502032703 50 232 5.2 7.8 0.00 0.00 0.00 59 1009.3
20260502031824 50 230 3.5 7.8 0.00 0.00 0.00 59 1009.3
20260502030903 50 251 1.7 7.8 0.00 0.00 0.00 59 1009.3
20260502030026 51 238 3.5 9.6 0.00 0.00 0.00 58 1009.5
20260502025403 51 234 3.5 7.8 0.00 0.00 0.00 58 1009.6
20260502024503 51 242 4.3 9.6 0.00 0.00 0.00 58 1009.7
20260502023605 51 240 5.2 9.6 0.00 0.00 0.00 57 1009.7
20260502022703 51 242 3.5 7.8 0.00 0.00 0.00 57 1009.8
20260502021824 51 233 3.5 6.1 0.00 0.00 0.00 56 1009.7
20260502020903 52 242 1.7 7.0 0.00 0.00 0.00 56 1009.9
20260502020024 52 243 3.5 9.6 0.00 0.00 0.00 55 1010.1
20260502015404 53 235 3.5 9.6 0.00 0.00 0.00 54 1010.2
20260502014524 53 227 4.3 7.8 0.00 0.00 0.00 53 1010.2
20260502013604 53 247 1.7 5.2 0.00 0.00 0.00 54 1010.2
20260502012703 53 258 0.9 3.5 0.00 0.00 0.00 54 1010.3
20260502011805 53 282 1.7 3.5 0.00 0.00 0.00 53 1010.3
20260502010924 53 250 1.7 7.8 0.00 0.00 0.00 53 1010.4
20260502010003 54 268 2.6 7.0 0.00 0.00 0.00 52 1010.5
20260502005404 54 237 1.7 7.8 0.00 0.00 0.00 51 1010.5
20260502004503 54 246 3.5 6.1 0.00 0.00 0.00 52 1010.6
20260502003605 54 252 2.6 5.2 0.00 0.00 0.00 51 1010.7
20260502002703 54 245 1.7 7.8 0.00 0.00 0.00 51 1010.7
20260502001825 55 236 3.5 7.8 0.00 0.00 0.00 50 1011.0
20260502000904 55 255 2.6 7.0 0.00 0.00 0.00 51 1011.0
20260502000005 55 262 2.6 7.0 0.00 0.00 0.00 50 1011.1
20260501235424 55 257 2.6 7.0 0.00 0.00 0.00 50 1010.7
20260501234524 56 292 3.5 6.1 0.00 0.00 0.00 50 1011.1
20260501233603 56 294 1.7 7.8 0.00 0.00 0.00 50 1011.2
20260501232703 56 288 3.5 6.1 0.00 0.00 0.00 50 1011.1